Location: Newark
(34.1333°N, 7.9667°W)
Time: 01:25:29
(UTC+00:00)

Envisat - Pass Details

Date: 26 September 2021
Orbit: 764 x 766 km, 98.2° (Epoch: 17 October)

Event Time Altitude Azimuth Distance (km) Brightness Sun altitude
Rises 05:02:56 0° 22° (NNE) 3,234 6.7 -17.3°
Reaches altitude 10° 05:05:25 10° 30° (NNE) 2,304 6.0 -16.8°
Maximum altitude 05:10:07 38° 98° (E) 1,156 4.5 -15.8°
Drops below altitude 10° 05:14:48 10° 166° (SSE) 2,290 5.5 -14.9°
Sets 05:17:14 0° 174° (S) 3,212 6.2 -14.4°
